This is the latest recevied weather packets stored in our database for station/object KY4LEX. If no packets are shown the sender has not sent any weather packets the latest 1 day(s).
| Time | Temp. | Humidity | Pressure | Rain* | Wind** | Luminosity | Snow |
|---|---|---|---|---|---|---|---|
| 1777999103 | 21.67° C | 54% | 1016.8 hPa | 0 mm | 3.13 m/s, 263° | 280 W/m² | - |
| 1777998802 | 21.11° C | 54% | 1016.7 hPa | 0 mm | 1.34 m/s, 348° | 313 W/m² | - |
| 1777998500 | 21.11° C | 55% | 1016.7 hPa | 0 mm | 1.34 m/s, 6° | 270 W/m² | - |
| 1777998196 | 21.11° C | 55% | 1016.9 hPa | 0 mm | 2.24 m/s, 11° | 247 W/m² | - |
| 1777997893 | 21.11° C | 55% | 1016.9 hPa | 0 mm | 2.24 m/s, 342° | 233 W/m² | - |
| 1777997590 | 21.11° C | 56% | 1017 hPa | 0 mm | 2.24 m/s, 302° | 223 W/m² | - |
| 1777997288 | 21.67° C | 55% | 1016.9 hPa | 0 mm | 3.13 m/s, 291° | 238 W/m² | - |
| 1777996985 | 21.67° C | 55% | 1016.7 hPa | 0 mm | 0.89 m/s, 324° | 259 W/m² | - |
| 1777996682 | 21.67° C | 55% | 1017.1 hPa | 0 mm | 0.89 m/s, 308° | 280 W/m² | - |
| 1777996377 | 21.67° C | 55% | 1016.9 hPa | 0 mm | 2.24 m/s, 223° | 311 W/m² | - |
| 1777996074 | 21.67° C | 55% | 1017 hPa | 0 mm | 1.79 m/s, 311° | 327 W/m² | - |
| 1777995771 | 21.11° C | 58% | 1016.7 hPa | 0 mm | 0.89 m/s, 352° | 330 W/m² | - |
| 1777995467 | 21.11° C | 57% | 1016.6 hPa | 0 mm | 1.79 m/s, 254° | 353 W/m² | - |
| 1777995164 | 20.56° C | 58% | 1016.5 hPa | 0 mm | 1.34 m/s, 70° | 352 W/m² | - |
| 1777994861 | 20.56° C | 58% | 1016.7 hPa | 0 mm | 2.24 m/s, 232° | 313 W/m² | - |
| 1777994558 | 20.56° C | 57% | 1016.6 hPa | 0 mm | 2.24 m/s, 262° | 304 W/m² | - |
| 1777994257 | 20.56° C | 60% | 1016.6 hPa | 0 mm | 0.45 m/s, 272° | 294 W/m² | - |
| 1777993955 | 20.56° C | 58% | 1016.7 hPa | 0 mm | 1.79 m/s, 269° | 284 W/m² | - |
| 1777993652 | 20° C | 58% | 1016.7 hPa | 0 mm | 0.45 m/s, 314° | 278 W/m² | - |
| 1777993350 | 20° C | 64% | 1016.7 hPa | 0 mm | 0 m/s | 253 W/m² | - |
| 1777993050 | 20° C | 59% | 1016.6 hPa | 0 mm | 1.79 m/s, 8° | 230 W/m² | - |
| 1777992748 | 20° C | 59% | 1016.4 hPa | 0 mm | 0 m/s | 217 W/m² | - |
| 1777992445 | 20° C | 59% | 1016.2 hPa | 0 mm | 0.89 m/s, 353° | 211 W/m² | - |
| 1777992144 | 19.44° C | 59% | 1016.7 hPa | 0 mm | 3.13 m/s, 294° | 207 W/m² | - |
| 1777991840 | 19.44° C | 61% | 1016.6 hPa | 0 mm | 0.89 m/s, 311° | 209 W/m² | - |
* Rain latest hour (hover to see other rain measurements)
** Current wind speed in m/s (hover to see current wind gust speed)